TimeEST,TemperatureF,Dew PointF,Humidity,Sea Level PressureIn,VisibilityMPH,Wind Direction,Wind SpeedMPH,Gust SpeedMPH,PrecipitationIn,Events,Conditions,WindDirDegrees,DateUTC
12:53 AM,34.0,16.0,48,30.13,10.0,NW,9.2,18.4,N/A,,Clear,310,2012-12-06 05:53:00
1:53 AM,32.0,15.1,50,30.17,10.0,NW,8.1,-,N/A,,Clear,310,2012-12-06 06:53:00
2:53 AM,30.9,14.0,50,30.18,10.0,Variable,4.6,-,N/A,,Clear,0,2012-12-06 07:53:00
3:53 AM,28.9,15.1,56,30.19,10.0,WNW,8.1,-,N/A,,Clear,300,2012-12-06 08:53:00
4:53 AM,28.9,15.1,56,30.22,10.0,Variable,4.6,-,N/A,,Clear,0,2012-12-06 09:53:00
5:53 AM,28.0,16.0,61,30.25,10.0,WNW,6.9,-,N/A,,Clear,300,2012-12-06 10:53:00
6:53 AM,27.0,16.0,63,30.27,10.0,Calm,Calm,-,N/A,,Clear,0,2012-12-06 11:53:00
7:53 AM,28.9,17.1,61,30.28,10.0,NW,4.6,-,N/A,,Clear,320,2012-12-06 12:53:00
8:53 AM,30.9,17.1,57,30.30,10.0,NNW,8.1,-,N/A,,Clear,330,2012-12-06 13:53:00
9:53 AM,35.1,18.0,50,30.31,10.0,Variable,6.9,-,N/A,,Clear,0,2012-12-06 14:53:00
10:53 AM,35.1,17.1,48,30.30,10.0,NW,6.9,-,N/A,,Clear,320,2012-12-06 15:53:00
11:53 AM,37.9,17.1,43,30.28,10.0,Calm,Calm,-,N/A,,Clear,0,2012-12-06 16:53:00
12:53 PM,39.9,17.1,40,30.26,10.0,Variable,4.6,-,N/A,,Clear,0,2012-12-06 17:53:00
1:53 PM,39.9,17.1,40,30.26,10.0,WNW,5.8,-,N/A,,Clear,290,2012-12-06 18:53:00
2:53 PM,39.9,16.0,38,30.27,10.0,Calm,Calm,-,N/A,,Clear,0,2012-12-06 19:53:00
3:53 PM,37.9,17.1,43,30.29,10.0,Calm,Calm,-,N/A,,Clear,0,2012-12-06 20:53:00
4:53 PM,30.0,19.0,64,30.29,10.0,Calm,Calm,-,N/A,,Clear,0,2012-12-06 21:53:00
5:53 PM,28.0,19.9,72,30.30,10.0,Calm,Calm,-,N/A,,Clear,0,2012-12-06 22:53:00
6:53 PM,26.1,19.0,75,30.31,10.0,Calm,Calm,-,N/A,,Clear,0,2012-12-06 23:53:00
7:53 PM,25.0,19.9,81,30.30,10.0,Calm,Calm,-,N/A,,Clear,0,2012-12-07 00:53:00
8:53 PM,23.0,19.0,85,30.31,10.0,Calm,Calm,-,N/A,,Clear,0,2012-12-07 01:53:00
9:53 PM,21.9,19.0,89,30.32,9.0,Calm,Calm,-,N/A,,Clear,0,2012-12-07 02:53:00
10:53 PM,21.9,18.0,85,30.31,10.0,Calm,Calm,-,N/A,,Clear,0,2012-12-07 03:53:00
11:53 PM,21.0,18.0,88,30.30,10.0,Calm,Calm,-,N/A,,Clear,0,2012-12-07 04:53:00